PADKPASY

Guest
Details From PADK - ADAK
To PASY - EARECKSON AS
Flight Number -
Tags decoded
Created
Modified
Stats Distance 347 nm / 642 km
Max Altitude 0 ft / 0 m
Waypoints 3
Social Downloads 0
Likes 0
Share VATSIM

Download

Looking for another format? Having issues loading an existing format? Contact us
Advertisement - Login to hide

Notes

Requested: PADK SYA PASY

Route

PADK SYA PASY

ID Type Via Altitude Latitude Longitude Leg Dist Tot Dist Heading (true) Name
O PADK APT - 0 ft / 0 m 51.87798˚ -176.64574˚ - 0 nm - ADAK
SYA NDB - 0 ft / 0 m 52.72200˚ 174.06028˚ 344 nm 344 nm 282° / 275° SHEMYA NDB
O PASY APT - 0 ft / 0 m 52.71222˚ 174.11362˚ 2 nm 346 nm 107° / 107° EARECKSON AS

Altitude Profile

Advertisement - Login to hide

Weather


0- 5 10 15 20 25 30 35+ Temperature / ° C

Clouds and Precipitation
Forecast for 2018-05-27 12:00 UTC. Updated an hour ago

Ground ~20,000 ft ~40,000 ft Winds

PADK

Details ICAO PADK (ADK)
Name ADAK
Region USA (Alaska)
Timezone America/Adak (UTC-9.0)
Stats Elevation 18 ft / 5 m (AMSL)
Location 51.877976° -176.645742°
Runways 2
Magnetic Variation 4.677° E

METAR

PADK 270956Z AUTO 18008KT 10SM OVC018 06/02 A3024

Decode

TAF

Not found

Departure Runways

ID Width Length Bearing (true) Bearing (mag) Surface Threshold Offset Overrun Length
05 200 ft / 61 m 7,772 ft / 2,369 m 60.49° 55.81° Asphalt 0 ft / 0 m 751 ft / 229 m
18 200 ft / 61 m 7,603 ft / 2,317 m 185.39° 180.71° Asphalt 0 ft / 0 m 0 ft / 0 m
23 200 ft / 61 m 7,772 ft / 2,369 m 240.52° 235.84° Asphalt 0 ft / 0 m 151 ft / 46 m
36 200 ft / 61 m 7,603 ft / 2,317 m 5.38° 0.70° Asphalt 0 ft / 0 m 0 ft / 0 m

PASY

Details ICAO PASY (SYA)
Name EARECKSON AS
Region USA (Alaska)
Timezone America/Adak (UTC-9.0)
Stats Elevation 98 ft / 30 m (AMSL)
Location 52.712221° 174.113618°
Runways 1
Magnetic Variation 0.394° E

METAR

PASY 271018Z AUTO 13016KT 1 3/4SM -RA BR OVC002 05/05 A2994

Decode

TAF

TAF TAF AMD PASY 270924Z 2709/2812 15017KT 1200 BR OVC001 620703 QNH2955INS TEMPO 2709/2718 1600 BR OVC002 BECMG 2719/2720 13020KT 6000 RA OVC002 620604 QNH2920INS BECMG 2802/2803 16020KT 6000 RA OVC002 620505 QNH2915INS BECMG 2804/2805 21020KT 6000 RA OVC002 620505 QNH2920INS BECMG 2810/2811 24025G30KT 9999 NSW OVC004 620307 510003 QNH2930INS TX07/2804Z TN03/2715Z

Decode

Destination Runways

ID Width Length Bearing (true) Bearing (mag) Surface Threshold Offset Overrun Length
10 150 ft / 46 m 9,978 ft / 3,041 m 107.03° 106.64° Asphalt 0 ft / 0 m 0 ft / 0 m
28 150 ft / 46 m 9,978 ft / 3,041 m 287.06° 286.67° Asphalt 0 ft / 0 m 0 ft / 0 m

Approach Navaids

Runway Type Ident Frequency Range Bearing (true) Bearing (mag) Slope Elevation
28 Localiser ISYA 110.10 MHz 18 nm / 33 km 287.74° 287.35° - 98 ft / 30 m (AMSL)
28 Glidescope ISYA 110.10 MHz 10 nm / 19 km 287.04° 286.65° 2.50° 98 ft / 30 m (AMSL)

Popular Alternatives